DateTimeUTC,F1_A11,F1_S11,BsB_S11,BsG_S11,BsR_S11,BbsB_S11,BbsG_S11,BbsR_S11,BaB_A11,BaG_A11,BaR_A11,Tu_S11,T_S11,Uu_S11,U_S11,P_S11,T1_A11
2021-03-08T14:00:00Z,00000200,21010000,,,,,,,-000.24,0000.10,0000.02,17.1,24.5,,00.0,0648.6,31.0
2021-03-08T14:01:00Z,00000200,21000000,,,,,,,-000.22,-000.42,0000.02,17.1,24.5,,00.0,0648.6,31.0
2021-03-08T14:02:00Z,00000200,21000000,,,,,,,-000.15,-000.07,-000.72,17.1,24.5,,00.0,0648.6,31.0
2021-03-08T14:03:00Z,00000200,61000000,,,,,,,-000.63,-000.20,-000.00,17.1,24.5,,00.0,0648.6,31.0
2021-03-08T14:04:00Z,00000200,41000000,0000.43,0000.39,0000.29,0000.37,0000.04,0000.38,0000.37,0000.21,0000.41,17.4,24.4,,00.0,0649.5,30.9
2021-03-08T14:05:00Z,00000200,01000000,0000.25,0000.40,-000.03,0000.14,0000.03,0000.17,-000.04,-000.07,-000.10,17.4,24.3,,00.0,0649.6,30.9
2021-03-08T14:06:00Z,00000200,01000000,0000.44,0000.16,0000.23,0000.62,-000.19,0000.18,-000.29,0000.38,0000.31,17.4,24.3,,00.0,0649.6,30.9
2021-03-08T14:07:00Z,00000200,01000000,0000.65,-000.04,-000.11,0000.46,0000.03,-000.00,0000.63,-000.03,-000.07,17.4,24.3,,00.0,0649.6,31.0
2021-03-08T14:08:00Z,00000200,01000000,0003.29,0003.83,0003.51,0000.89,0000.82,0000.85,0025.84,0024.94,0019.02,17.4,24.3,01.3,00.9,0649.5,31.0
2021-03-08T14:09:00Z,00000200,00000000,0004.08,0004.59,0004.44,0001.15,0000.73,0001.03,0009.31,0008.86,0006.99,17.4,24.3,12.3,08.0,0649.5,31.0
2021-03-08T14:10:00Z,00000200,00000000,0000.86,0001.29,0001.35,0000.38,0000.23,0000.29,0000.22,-000.52,0000.07,17.3,24.3,10.6,06.9,0649.5,30.9
2021-03-08T14:11:00Z,00000200,00000000,0000.01,0000.79,0000.44,0000.48,0000.22,-000.01,-000.15,-000.12,0000.41,17.3,24.3,08.1,05.3,0649.4,30.9
2021-03-08T14:12:00Z,00000200,00000000,0000.93,0000.71,0000.59,0000.44,-000.00,0000.17,0000.25,-000.13,0000.13,17.3,24.3,06.8,04.4,0649.4,30.9
2021-03-08T14:13:00Z,00000200,00000000,0000.82,0000.50,0000.28,0000.12,-000.12,0000.05,-000.43,0000.05,0000.03,17.3,24.3,06.0,03.9,0649.4,30.9
2021-03-08T14:14:00Z,00000200,00000000,-000.12,0000.58,0000.36,0000.43,-000.06,0000.02,0000.45,0000.48,0000.22,17.3,24.3,05.3,03.5,0649.4,30.9
2021-03-08T14:15:00Z,00000200,00000000,0000.59,0000.63,0000.38,0000.35,0000.16,0000.03,0000.06,-000.15,0000.08,17.3,24.3,05.0,03.2,0649.4,31.0
2021-03-08T14:16:00Z,00000200,00000000,0000.52,0000.45,0000.14,0000.26,0000.26,0000.03,-000.36,-000.44,0000.25,17.4,24.3,04.5,03.0,0649.4,31.0
2021-03-08T14:17:00Z,00000200,00000000,0000.72,0000.42,0000.09,0000.20,0000.02,0000.14,0000.12,0000.23,-000.24,17.5,24.3,04.2,02.8,0649.4,31.0
2021-03-08T14:18:00Z,00000200,00000000,0000.21,0000.41,-000.05,0000.37,-000.25,0000.05,-000.48,-000.63,-000.31,17.5,24.3,03.9,02.6,0649.4,31.0
2021-03-08T14:19:00Z,00000200,00000000,0000.20,0000.26,-000.05,0000.59,0000.01,0000.26,-000.57,-000.34,-000.48,17.5,24.4,03.3,02.2,0649.4,31.0
2021-03-08T14:20:00Z,00000200,00000000,0000.46,0000.27,-000.05,0000.76,0000.17,-000.06,-000.43,-000.65,-000.10,17.5,24.3,02.9,01.9,0649.4,31.0
2021-03-08T14:21:00Z,00000200,00000000,0000.12,0000.41,0000.28,0000.23,0000.22,0000.13,-000.23,-000.09,-000.11,17.5,24.3,02.5,01.6,0649.4,31.0
2021-03-08T14:22:00Z,00000200,00000000,0000.31,0000.32,0000.18,-000.02,-000.00,0000.26,-000.31,-000.13,-000.02,17.5,24.3,02.2,01.5,0649.4,31.0
2021-03-08T14:23:00Z,00000200,01000000,0000.47,0000.25,0000.41,0000.38,-000.00,0000.13,-000.08,-000.16,-000.34,17.5,24.3,01.9,01.3,0649.4,30.9
2021-03-08T14:24:00Z,00000200,01000000,0000.23,0000.47,0000.12,0000.25,-000.13,-000.02,-000.08,-000.16,0000.43,17.5,24.3,01.8,01.2,0649.4,30.9
2021-03-08T14:25:00Z,00000200,01000000,0000.48,0000.32,0000.32,0000.16,0000.04,0000.42,-000.77,-000.45,-000.45,17.5,24.3,01.6,01.0,0649.4,31.0
2021-03-08T14:26:00Z,00000200,01000000,0000.29,0000.35,0000.24,0000.37,0000.03,0000.33,0000.22,-000.10,0000.19,17.5,24.3,01.4,00.9,0649.4,30.9
2021-03-08T14:27:00Z,00000200,01000000,0000.66,0000.14,0000.03,0000.39,0000.02,0000.17,0000.59,0000.41,-000.04,17.5,24.3,01.4,00.9,0649.4,30.9
2021-03-08T14:28:00Z,00000200,01000000,0000.29,0000.41,0000.10,0000.52,-000.03,0000.04,-000.08,0000.12,-000.01,17.5,24.3,01.5,01.0,0649.4,30.9
2021-03-08T14:29:00Z,00000200,01000000,0000.43,0000.18,-000.04,0000.29,0000.27,0000.07,0000.33,0000.42,0000.48,17.5,24.3,01.5,01.0,0649.4,31.0
2021-03-08T14:30:00Z,00000200,01000000,0000.49,0000.36,0000.24,0000.10,-000.24,0000.25,-000.06,-000.29,-000.31,17.5,24.3,01.4,00.9,0649.4,31.0
2021-03-08T14:31:00Z,00000200,01000000,0000.10,0000.15,0000.28,0000.16,-000.06,0000.10,-000.66,-000.50,-000.29,17.5,24.3,01.3,00.8,0649.3,30.9
2021-03-08T14:32:00Z,00000200,01000000,0000.59,0000.31,0000.22,0000.72,-000.11,0000.19,-000.97,-000.72,-000.46,17.6,24.4,00.9,00.6,0649.3,30.9
2021-03-08T14:33:00Z,00000200,01000000,0000.45,0000.16,0000.35,0000.48,-000.12,0000.10,-001.17,-001.28,-000.64,17.6,24.3,00.4,00.3,0649.4,30.9
2021-03-08T14:34:00Z,00000200,01000000,-000.20,0000.28,0000.24,0000.01,0000.12,-000.00,-000.64,-000.29,-000.52,17.5,24.3,00.1,00.0,0649.4,30.9
2021-03-08T14:35:00Z,00000200,01000000,0000.19,0000.24,0000.12,0000.19,0000.14,0000.39,-000.26,-000.32,-000.04,17.6,24.3,00.0,00.0,0649.4,30.9
2021-03-08T14:36:00Z,00000200,01000000,0000.13,0000.28,0000.37,0000.16,0000.01,0000.32,0002.51,0002.27,0002.29,17.6,24.4,,00.0,0649.3,30.9
2021-03-08T14:37:00Z,00000200,01000000,0000.55,0000.19,0000.20,0000.18,-000.03,0000.22,0000.09,0000.08,0000.26,17.6,24.4,,00.0,0649.3,30.9
2021-03-08T14:38:00Z,00000200,01000000,-000.40,0000.23,0000.18,0000.36,-000.23,-000.00,-000.07,0000.14,0000.09,17.6,24.4,00.0,00.0,0649.3,31.0
2021-03-08T14:39:00Z,00000200,01000000,-000.01,0000.17,0000.35,0000.48,0000.28,0000.24,0000.40,0000.05,0000.12,17.6,24.4,00.0,00.0,0649.3,31.0
2021-03-08T14:40:00Z,00000200,01000000,0000.92,0000.31,0000.11,0000.56,-000.05,0000.03,0000.09,0000.52,-000.14,17.6,24.4,00.0,00.0,0649.3,31.0
2021-03-08T14:41:00Z,00000200,01000000,0000.35,0000.20,0000.16,0000.80,0000.11,-000.09,0000.17,-000.19,0000.37,17.6,24.4,00.0,00.0,0649.2,30.9
2021-03-08T14:42:00Z,00000200,01000000,0000.28,0000.41,0000.23,0000.47,0000.02,0000.20,0000.18,0000.46,0000.11,17.7,24.4,00.0,00.0,0649.2,31.0
2021-03-08T14:43:00Z,00000200,01000000,0000.06,0000.38,0000.11,0000.66,0000.27,0000.07,0000.28,0000.36,0000.42,17.7,24.4,00.0,00.0,0649.2,31.0
2021-03-08T14:44:00Z,00000200,01000000,0000.19,0000.28,0000.12,0000.32,0000.04,0000.17,-000.30,-000.34,-000.28,17.7,24.4,00.0,00.0,0649.2,31.0
2021-03-08T14:45:00Z,00000200,01000000,0000.46,0000.03,0000.12,0000.49,-000.10,0000.06,0000.25,-000.06,-000.09,17.7,24.4,00.0,00.0,0649.2,31.0
2021-03-08T14:46:00Z,00000200,01000000,0000.07,0000.36,0000.02,-000.12,0000.17,0000.11,0000.28,0000.41,0000.67,17.8,24.4,00.0,00.0,0649.2,31.0
2021-03-08T14:47:00Z,00000200,01000000,0000.29,0000.21,0000.24,0000.17,0000.16,0000.25,0000.08,-000.01,-000.29,17.8,24.4,00.0,00.0,0649.2,31.0
2021-03-08T14:48:00Z,00000200,01000000,0000.37,0000.16,0000.13,0000.62,0000.21,0000.10,0000.38,0000.88,0000.53,17.8,24.5,00.0,00.0,0649.2,31.0
2021-03-08T14:49:00Z,00000200,01000000,-000.03,0000.45,0000.07,0000.31,0000.12,0000.01,0000.43,-000.15,-000.02,17.8,24.5,00.1,00.1,0649.2,31.0
2021-03-08T14:50:00Z,00000200,01000000,0000.21,0000.35,0000.24,0000.60,0000.02,0000.07,0000.11,0000.53,0000.40,17.8,24.5,00.2,00.1,0649.2,31.0
2021-03-08T14:51:00Z,00000200,01000000,0000.56,0000.24,-000.09,0000.42,0000.13,0000.06,-000.07,-000.01,-000.01,17.8,24.5,00.2,00.1,0649.2,31.0
2021-03-08T14:52:00Z,00000200,01000000,0000.61,0000.06,0000.02,0000.18,0000.07,0000.24,0000.65,-000.03,0000.32,17.9,24.5,00.2,00.1,0649.2,31.0
2021-03-08T14:53:00Z,00000200,01000000,0000.14,0000.55,0000.45,0000.31,0000.19,0000.45,0000.20,0000.59,-000.24,17.9,24.5,00.2,00.1,0649.2,31.0
2021-03-08T14:54:00Z,00000200,01000000,0000.04,0000.44,0000.27,0000.24,0000.25,0000.20,-000.21,-000.17,0000.21,17.9,24.5,00.2,00.1,0649.2,31.0
2021-03-08T14:55:00Z,00000200,01000000,0000.09,0000.32,0000.15,0000.39,-000.02,0000.06,0000.41,0000.33,0000.50,17.9,24.5,00.2,00.2,0649.2,31.0
2021-03-08T14:56:00Z,00000200,01000000,0000.60,0000.43,0000.22,0000.44,-000.03,0000.16,-000.15,0000.25,-000.37,17.9,24.5,00.2,00.1,0649.2,31.0
2021-03-08T14:57:00Z,00000200,41000000,,,,,,,0000.11,-000.24,-000.11,18.0,24.6,00.3,00.2,0649.2,31.0
2021-03-08T14:58:00Z,00000200,61000000,,,,,,,-000.98,-001.04,-000.35,17.7,24.7,00.0,00.0,0648.3,31.0
2021-03-08T14:59:00Z,00000200,21000000,,,,,,,-000.37,-000.07,-000.75,17.7,24.8,,00.0,0648.3,31.0
